CZ-3A DEB, 35558

Orbit data source: Space-Track

CZ-3A DEB, 35558 is space debris in HEO originally from a launch on Fri, 02 Feb 2007 UTC launched from the Xichang Space Center, China (XSC). Debris objects in space refer to the collection of defunct objects orbiting the Earth. Examples of debris include non-operational satellites, rocket bodies, and fragments generated from explosions, collisions, or faulty payload assembly.

Loading next visibility...
Identifier
35558, 2007-003S
Orbit
HEO
Country
Flag of CNCN / PRC
Related business
Manufacturer
Unknown
Mission
Spacecraft
Bus & Motor
Unknown
Mass
Unknown
Launch date (UTC)
2007-02-02 (19 years ago)
Launch vehicle
Unknown
Launch site
Xichang Space Center, China (XSC)
Object type
Payload
Rocket body
Debris
Shape & HBR
Unknown shape, 0.3 m
Radar Cross Section
Medium (>0.1 m² and <1 m²)

Expand to show TLE details & history
Last TLE update: 21 hours ago

TLE from 21 hours ago
0 CZ-3A DEB
1 35558U 07003S   26125.48453883  .00000087  00000-0  60819-3 0  9997
2 35558  22.2396 154.0004 7478772  89.6379 347.0334  1.91830484 90113
Epoch: 2026-05-05T11:37Z
TLE epoch observation values (Epoch: 2026-05-05T11:37:44.154Z)
Latitude
-0.00003°
Longitude
116.33352°
Altitude
5,553.919 km
Speed
7.228 km/s
True Right ascension
10h 16m 30s
True Declination
0° 00' 00"
Sunlit
Object was in daylight at epoch
Visualization orbit readout
Latitude
Unknown
Longitude
Unknown
Altitude
Unknown
Speed
Unknown
Apparent Right ascension
Unknown
Apparent Declination
Unknown
Sunlit
N/A
Visualization observer readout
Local Sidereal Time
16:35:08
Azimuth
Unknown
Elevation
Unknown
Doppler factor
Unknown
Orbital elements
Apogee altitude
41,452.172 km
Perigee altitude
521.153 km
Semi-major axis
27,364.799 km
Eccentricity
0.74788
Inclination
22.2396°
RAAN
154.0004°
Arg. of periapsis
89.6379°
True anomaly
270.62381°
Mean anomaly
347.0334°
Eccentric anomaly
318.81926°
Mean motion
0.47946 °/min
Orbital period
750.84 mins
BSTAR
0.00060819
Loading maneuver chart data...
Computing Atmospheric mass density...
Loading historical data...
Loading historical data...
Loading historical data...
Loading historical data...
Loading historical data...
Loading historical data...
Loading historical data...

Documentation

Showing up to 5 results
|